Orbital Elements at Epoch 2459200.5 (2020-Dec-17.0) TDB
Reference: JPL 13 (heliocentric ecliptic J2000)
Element | Value | Uncertainty (1-sigma) | Units |
e | .1411645512959316 | 4.5497e-08 | |
a | 3.053222249529988 | 2.5178e-08 | au |
q | 2.622215500668332 | 1.4747e-07 | au |
i | .3464723250239912 | 4.8555e-06 | deg |
node | 151.1565837638275 | 0.0009205 | deg |
peri | 171.3167309917835 | 0.00092074 | deg |
M | 305.2514634581165 | 2.2617e-05 | deg |
tp | 2459496.850775893947 (2021-Oct-09.35077589) | 0.00012413 | TDB |
period | 1948.659928840367 5.34 | 2.4104e-05 6.599e-08 | d yr |
n | .1847423425052074 | 2.2852e-09 | deg/d |
Q | 3.484228998391643 | 2.8733e-08 | au |
|
| | Orbit Determination Parameters
Additional Information
|